DENIK EDNY-EDNY

Flight info

Callsign DENIK
Flight time 0h 2m
Altitude
Route VFR
Aircraft C172

Departure

Time 2026-04-28 19:22
Airport Bodensee Airport Friedrichshafen (EDNY)

Arrival

Time 2026-04-28 19:25
Airport Bodensee Airport Friedrichshafen (EDNY)
Time Latitude Longitude Altitude Speed Heading
2026-04-28 19:16 47.67267 9.52124 1363 ft 0 kts 185°
2026-04-28 19:17 47.67266 9.52124 1363 ft 1 kts 186°
2026-04-28 19:17 47.67267 9.52104 1362 ft 5 kts 343°
2026-04-28 19:17 47.67291 9.52074 1362 ft 7 kts 274°
2026-04-28 19:18 47.67246 9.51912 1362 ft 27 kts 239°
2026-04-28 19:18 47.67142 9.51642 1358 ft 34 kts 239°
2026-04-28 19:18 47.67019 9.51343 1354 ft 32 kts 238°
2026-04-28 19:18 47.66917 9.51068 1348 ft 29 kts 240°
2026-04-28 19:19 47.66817 9.50811 1344 ft 29 kts 240°
2026-04-28 19:19 47.66790 9.50747 1345 ft 0 kts 238°
2026-04-28 19:19 47.66767 9.50676 1346 ft 13 kts 250°
2026-04-28 19:20 47.66808 9.50614 1346 ft 3 kts 11°
2026-04-28 19:21 47.66810 9.50615 1346 ft 6 kts 13°
2026-04-28 19:21 47.66970 9.50760 1346 ft 32 kts 43°
2026-04-28 19:22 47.67164 9.51226 1359 ft 72 kts 59°
2026-04-28 19:22 47.67323 9.51634 1572 ft 61 kts 59°
2026-04-28 19:22 47.67635 9.52439 1777 ft 71 kts 54°
2026-04-28 19:22 47.68070 9.52420 1974 ft 83 kts 330°
2026-04-28 19:23 47.68554 9.51794 2041 ft 104 kts 302°
2026-04-28 19:23 47.68390 9.50736 2059 ft 114 kts 239°
2026-04-28 19:23 47.67979 9.49734 2122 ft 114 kts 239°
2026-04-28 19:23 47.67585 9.48754 2093 ft 100 kts 241°
2026-04-28 19:24 47.67104 9.48083 1938 ft 95 kts 177°
2026-04-28 19:24 47.66566 9.48514 1857 ft 76 kts 139°
2026-04-28 19:24 47.66426 9.49253 1579 ft 80 kts 74°
2026-04-28 19:24 47.66653 9.49912 1389 ft 68 kts 60°
2026-04-28 19:25 47.66851 9.50434 1346 ft 44 kts 60°
2026-04-28 19:25 47.67037 9.50919 1350 ft 73 kts 60°
2026-04-28 19:25 47.67285 9.51526 1653 ft 62 kts 56°
2026-04-28 19:25 47.67504 9.52117 1846 ft 66 kts 63°
2026-04-28 19:26 47.67916 9.52418 1929 ft 78 kts 344°
2026-04-28 19:26 47.68406 9.52021 2093 ft 86 kts 317°
2026-04-28 19:26 47.68366 9.51082 2154 ft 105 kts 245°
2026-04-28 19:26 47.68074 9.50080 2148 ft 106 kts 249°
2026-04-28 19:27 47.67790 9.49074 2124 ft 104 kts 248°
2026-04-28 19:27 47.67392 9.48255 2041 ft 95 kts 193°
2026-04-28 19:27 47.66825 9.48556 1779 ft 90 kts 144°
2026-04-28 19:27 47.66422 9.49147 1628 ft 75 kts 82°
2026-04-28 19:28 47.66620 9.49828 1411 ft 71 kts 60°
2026-04-28 19:28 47.66835 9.50388 1350 ft 49 kts 60°
2026-04-28 19:28 47.66988 9.50779 1349 ft 56 kts 61°
2026-04-28 19:28 47.67231 9.51406 1475 ft 70 kts 63°
2026-04-28 19:29 47.67459 9.52017 1690 ft 72 kts 63°
2026-04-28 19:29 47.67632 9.52463 1773 ft 76 kts 60°
2026-04-28 19:29 47.67984 9.53357 2051 ft 79 kts 61°
2026-04-28 19:29 47.68286 9.54176 2138 ft 96 kts 66°
2026-04-28 19:30 47.68622 9.55033 2182 ft 104 kts 52°
2026-04-28 19:30 47.69205 9.55610 2346 ft 94 kts 32°
2026-04-28 19:30 47.69829 9.55977 2320 ft 105 kts 23°
2026-04-28 19:30 47.70546 9.56328 2395 ft 105 kts 25°
2026-04-28 19:31 47.71243 9.56685 2425 ft 109 kts 25°
2026-04-28 19:31 47.71972 9.57003 2436 ft 107 kts 21°
2026-04-28 19:31 47.72742 9.56928 2399 ft 121 kts 347°
2026-04-28 19:31 47.73511 9.56479 2470 ft 115 kts 349°
2026-04-28 19:32 47.74277 9.56154 2492 ft 116 kts 353°
2026-04-28 19:32 47.75048 9.55820 2584 ft 112 kts 355°
2026-04-28 19:32 47.75801 9.55612 2704 ft 108 kts
2026-04-28 19:32 47.76551 9.55464 2821 ft 108 kts
2026-04-28 19:33 47.77306 9.55263 2889 ft 114 kts 358°
2026-04-28 19:33 47.78098 9.54947 2893 ft 121 kts 349°
2026-04-28 19:33 47.78876 9.54426 2903 ft 128 kts 334°
2026-04-28 19:33 47.79298 9.53210 2893 ft 142 kts 278°
2026-04-28 19:34 47.79341 9.51745 2907 ft 140 kts 276°
2026-04-28 19:34 47.79371 9.50279 2915 ft 143 kts 276°
2026-04-28 19:34 47.79600 9.48882 2910 ft 137 kts 299°
2026-04-28 19:34 47.79939 9.47560 2990 ft 136 kts 296°
2026-04-28 19:35 47.80287 9.46282 3085 ft 132 kts 297°
2026-04-28 19:35 47.80627 9.45020 3188 ft 130 kts 298°
2026-04-28 19:35 47.80977 9.43782 3278 ft 127 kts 298°
2026-04-28 19:35 47.81306 9.42616 3363 ft 118 kts 297°
2026-04-28 19:36 47.81612 9.41488 3383 ft 118 kts 298°
2026-04-28 19:36 47.81913 9.40358 3386 ft 119 kts 299°
2026-04-28 19:36 47.82195 9.39213 3376 ft 115 kts 297°
2026-04-28 19:36 47.82465 9.38107 3387 ft 116 kts 298°
2026-04-28 19:37 47.82766 9.36893 3408 ft 130 kts 298°
2026-04-28 19:37 47.82995 9.36035 3404 ft 139 kts 298°
2026-04-28 19:37 47.83470 9.34204 3390 ft 145 kts 297°
2026-04-28 19:37 47.83863 9.32825 3393 ft 145 kts 298°
2026-04-28 19:38 47.84260 9.31440 3391 ft 144 kts 298°
2026-04-28 19:38 47.84640 9.30067 3392 ft 142 kts 298°
2026-04-28 19:38 47.85004 9.28719 3383 ft 138 kts 297°
2026-04-28 19:38 47.85358 9.27403 3385 ft 138 kts 297°
2026-04-28 19:39 47.85709 9.26064 3392 ft 138 kts 297°
2026-04-28 19:39 47.86051 9.24753 3384 ft 134 kts 297°
2026-04-28 19:39 47.86395 9.23435 3393 ft 137 kts 301°
2026-04-28 19:39 47.86803 9.22128 3404 ft 142 kts 300°